EST,Max TemperatureF,Mean TemperatureF,Min TemperatureF,Max Dew PointF,MeanDew PointF,Min DewpointF,Max Humidity, Mean Humidity, Min Humidity, Max Sea Level PressureIn, Mean Sea Level PressureIn, Min Sea Level PressureIn, Max VisibilityMiles, Mean VisibilityMiles, Min VisibilityMiles, Max Wind SpeedMPH, Mean Wind SpeedMPH, Max Gust SpeedMPH,PrecipitationIn, CloudCover, Events, WindDirDegrees
2013-2-1,18,15,12,10,6,2,88,71,53,30.32,30.10,29.84,10,6,0,24,14,33,0.10,7,Snow,252
2013-2-2,21,16,10,18,11,1,91,76,61,30.30,30.08,29.93,10,4,0,15,7,21,0.16,8,Snow,205
2013-2-3,21,19,17,18,13,8,91,74,57,30.01,29.89,29.81,10,6,2,18,9,23,0.02,8,Snow,255
2013-2-4,23,19,15,19,14,9,92,80,67,30.06,29.95,29.84,9,3,1,16,6,21,0.11,8,Snow,225
2013-2-5,27,24,20,21,19,16,92,78,63,29.95,29.88,29.80,10,5,1,9,3,10,0.04,8,Snow,259
2013-2-6,31,23,14,23,15,6,96,68,39,30.35,30.19,29.96,10,7,1,15,5,20,0.01,5,Snow,305
2013-2-7,41,28,15,24,18,8,73,61,48,30.32,30.17,29.94,10,10,9,17,10,24,0.00,6,,119
2013-2-8,36,29,21,34,24,15,92,81,69,30.21,29.91,29.75,10,6,1,30,16,38,0.24,8,Rain-Snow,264
2013-2-9,31,24,17,16,14,10,84,66,47,30.43,30.36,30.20,10,10,5,25,8,32,T,4,Snow,345
2013-2-10,46,32,17,23,16,10,74,51,28,30.36,30.17,29.89,10,10,10,21,11,30,T,6,,135
2013-2-11,52,43,34,43,33,21,96,71,45,29.89,29.78,29.65,10,10,3,35,17,47,0.01,7,Rain-Snow,219
2013-2-12,34,28,21,23,21,19,88,75,61,30.07,29.99,29.92,10,9,8,25,10,32,T,6,Snow,259
2013-2-13,36,28,20,25,22,17,88,76,64,29.94,29.83,29.73,10,8,4,13,5,14,0.00,6,,4
2013-2-14,39,31,23,34,28,19,89,84,79,29.91,29.86,29.80,10,6,2,22,10,32,0.01,7,Rain-Snow,196
2013-2-15,37,30,22,27,23,17,78,67,56,30.09,30.01,29.87,10,9,1,22,9,31,0.01,7,Snow,290
2013-2-16,28,22,15,19,16,10,92,71,50,30.08,30.00,29.92,10,6,0,14,4,17,0.12,7,Fog-Snow,327
2013-2-17,20,14,7,16,9,2,92,71,49,30.27,30.06,29.91,10,7,1,22,9,28,0.02,6,Snow,297
2013-2-18,42,24,5,26,13,2,80,62,44,30.29,30.13,29.82,10,10,10,18,9,25,0.00,4,,158
2013-2-19,45,32,18,37,25,8,85,67,49,29.95,29.75,29.61,10,6,1,29,18,39,0.29,8,Rain-Snow,233
2013-2-20,21,19,16,13,10,7,80,71,62,30.22,30.09,29.93,10,4,0,22,14,30,0.14,8,Snow,268
2013-2-21,21,17,13,14,12,9,84,76,67,30.38,30.28,30.14,10,6,1,14,8,18,0.05,8,Snow,318
2013-2-22,35,26,16,34,24,11,100,82,63,30.32,30.05,29.93,10,5,1,22,11,30,0.03,8,Rain-Snow,128
2013-2-23,37,32,26,32,28,21,96,83,69,29.99,29.93,29.86,10,6,2,10,6,15,0.00,7,,209
2013-2-24,31,29,26,23,21,19,84,74,63,30.15,30.02,29.90,10,8,2,17,6,22,0.01,8,Snow,283
2013-2-25,42,32,21,27,22,18,100,73,45,30.24,30.18,30.10,10,8,0,10,3,18,0.00,4,Fog,59
2013-2-26,38,33,27,34,27,19,92,73,54,30.09,29.78,29.54,10,8,2,28,16,39,0.77,7,Rain-Snow,106
2013-2-27,42,37,32,37,34,30,100,90,79,29.66,29.59,29.51,10,8,2,22,10,29,0.23,8,Rain-Snow,199
2013-2-28,34,32,30,30,29,27,92,85,78,29.84,29.66,29.57,10,4,1,16,9,21,0.12,8,Rain-Snow,259